Meteo Giornale » Osservazioni meteo Italia » Napoli-Capodichino

ore: 10:50 - Osservazioni Meteo Napoli-Capodichino
Lat. 40° 51' N Lon. 14° 18' E Alt. 88 metri s.l.m.

sereno Europe/Rome

22 °C

Sereno

Temp. 24 Ore

14 °C

22 °C

Nord

5.5 Km/h

Dew point 14 °C

Umidità 60 %

Visibilità  10 Km

Il sole sorge alle ore 05:29

Il sole tramonta alle ore 20:33

Data e Ora Cielo e Fenomeni T °C DP °C Um. % Pres. hPa Vis. km Vento km/h
Oggi h: 10:50 sereno Sereno 22 14 60 1008 10 N 5.5
Oggi h: 10:20 sereno Sereno 22 14 60 1008 10 O/SO 7.4
Oggi h: 09:50 sereno Sereno 21 14 64 1008 10 N 5.5
Oggi h: 09:20 sereno Sereno 20 14 68 1008 10 O 7.4
Oggi h: 08:50 sereno Sereno 20 15 72 1008 10 N 3.7
Oggi h: 08:20 sereno Sereno 19 15 77 1007 10 N 3.7
Oggi h: 07:50 sereno Sereno 18 15 82 1007 10 N 5.5
Oggi h: 07:20 sereno Sereno 17 15 88 1007 10 N 5.5
Oggi h: 06:50 foschia Foschia 16 15 93 1006 5 N 3.7
Oggi h: 06:20 poco_nuvoloso Poco Nuvoloso 15 14 93 1006 7 N 3.7
Oggi h: 05:50 poco_nuvoloso Poco Nuvoloso 15 14 93 1006 7 N 5.5
Oggi h: 05:20 nebbia Nebbia a Strati 15 14 93 1006 7 N 5.5
Oggi h: 04:50 poco_nuvoloso Poco Nuvoloso 15 14 93 1005 8 N/NE 7.4
Oggi h: 04:20 poco_nuvoloso Poco Nuvoloso 15 15 100 1005 10 N 3.7
Oggi h: 03:50 poco_nuvoloso Poco Nuvoloso 14 14 100 1005 10 N 5.5
Oggi h: 03:20 poco_nuvoloso Poco Nuvoloso 14 14 100 1005 10 N 5.5
Oggi h: 02:50 poco_nuvoloso Poco Nuvoloso 15 15 100 1005 10 N 1.8
Oggi h: 02:20 poco_nuvoloso Poco Nuvoloso 16 15 93 1005 10 N 3.7
Oggi h: 01:50 poco_nuvoloso Poco Nuvoloso 16 15 93 1005 10 N 3.7
Oggi h: 01:20 poco_nuvoloso Poco Nuvoloso 16 15 93 1005 10 N 3.7
Oggi h: 00:50 poco_nuvoloso Poco Nuvoloso 16 15 93 1005 10 N 3.7
Oggi h: 00:20 nuvoloso Nuvoloso 17 15 88 1005 10 N 1.8
Ieri h: 23:50 nuvoloso Nuvoloso 17 15 88 1005 10 N 1.8
Ieri h: 23:20 poco_nuvoloso Poco Nuvoloso 17 15 88 1005 10 N 3.7
Ieri h: 22:50 nuvoloso Nuvoloso 17 15 88 1005 10 N 3.7
Ieri h: 22:20 nuvoloso Nuvoloso 18 16 88 1005 10 S/SO 9.3
Ieri h: 21:50 nuvoloso Nuvoloso 17 16 93 1005 10 N 5.5
Ieri h: 21:20 nuvoloso Nuvoloso 17 16 93 1004 10 N 5.5
Ieri h: 20:50 nuvoloso Nuvoloso 17 15 88 1004 10 N 5.5
Ieri h: 20:20 nuvoloso Nuvoloso 18 16 88 1005 10 S/SO 7.4
Ieri h: 19:50 nuvoloso Nuvoloso 18 16 88 1004 10 S/SO 7.4
Ieri h: 19:20 nuvoloso Nuvoloso 19 15 77 1004 10 N 3.7
Ieri h: 18:50 molto_nuvoloso Molto Nuvoloso 18 15 82 1004 10 N 3.7
Ieri h: 18:20 molto_nuvoloso Molto Nuvoloso 18 16 88 1004 10 N 5.5
Ieri h: 17:50 molto_nuvoloso Molto Nuvoloso 18 16 88 1004 10 N 5.5
Ieri h: 17:20 molto_nuvoloso Molto Nuvoloso 18 16 88 1004 10 N 5.5
Ieri h: 16:50 molto_nuvoloso Molto Nuvoloso 18 16 88 1004 10 SO 7.4
Ieri h: 16:20 coperto_pioggia Pioggia Debole 17 16 93 1004 8 N 5.5
Ieri h: 15:50 coperto_pioggia Pioggia Debole 17 16 93 1004 8 N 5.5
Ieri h: 15:20 coperto_pioggia Pioggia Debole 17 15 88 1004 7 N 5.5
Ieri h: 14:50 coperto_pioggia Pioggia Debole Foschia 16 15 93 1004 3 N 7.4
Ieri h: 14:20 coperto_pioggia Pioggia Debole Foschia 17 15 88 1005 3 N 3.7
Ieri h: 13:50 coperto_pioggia Pioggia Debole 17 15 88 1005 6 SO 13
Ieri h: 13:20 coperto_pioggia Pioggia Foschia 17 15 88 1005 3 O/SO 27.8
Ieri h: 12:50 coperto_pioggia Pioggia Foschia 18 16 88 1004 3 SO 24
Ieri h: 12:20 coperto_pioggia Pioggia 18 17 93 1004 3 SO 20.3
Ieri h: 11:50 coperto_pioggia Pioggia 18 16 88 1004 4 S/SO 25.9